QPF
0.00 0.00 0.00 0.00 0.06 0.02 0.00 0.00 0.00 0.00 0.00 0.00 0.00 0.00 0.00 0.02 0.00 0.02 0.00 0.00 0.00 0.00 0.00 0.01 0.06 0.08 0.06 0.05 0.01 0.00 0.00 0.00 0.02 0.01 0.05 0.09 0.07 0.01 0.01 0.03 0.03 0.01 0.01 0.01 0.01 0.00 0.02 0.04 0.06
0.00 0.00 0.00 0.04 0.12 0.00 0.00 0.00 0.00 0.00 0.00 0.00 0.00 0.00 0.00 0.00 0.00 0.00 0.00 0.00 0.00 0.00 0.00 0.00 0.04 0.04 0.04 0.05 0.04 0.00 0.00 0.03 0.03 0.01 0.07 0.06 0.04 0.04 0.02 0.01 0.05 0.06 0.04 0.01 0.00 0.02 0.02 0.00 0.00
0.00 0.00 0.04 0.14 0.04 0.00 0.00 0.00 0.00 0.00 0.00 0.01 0.00 0.01 0.00 0.00 0.00 0.00 0.00 0.00 0.00 0.00 0.00 0.00 0.00 0.01 0.04 0.04 0.00 0.01 0.02 0.03 0.02 0.01 0.00 0.00 0.02 0.04 0.00 0.03 0.03 0.04 0.02 0.02 0.00 0.00 0.00 0.00 0.00
0.04 0.03 0.03 0.13 0.02 0.00 0.00 0.00 0.00 0.00 0.00 0.00 0.00 0.00 0.00 0.00 0.00 0.00 0.00 0.00 0.00 0.00 0.00 0.01 0.05 0.04 0.02 0.02 0.01 0.05 0.08 0.02 0.01 0.00 0.00 0.00 0.01 0.01 0.01 0.01 0.00 0.00 0.01 0.01 0.00 0.00 0.00 0.00 0.01
0.01 0.10 0.16 0.05 0.00 0.00 0.00 0.00 0.00 0.00 0.00 0.00 0.00 0.00 0.00 0.00 0.00 0.00 0.00 0.00 0.00 0.00 0.00 0.00 0.03 0.01 0.00 0.01 0.02 0.01 0.02 0.01 0.01 0.00 0.00 0.00 0.01 0.03 0.03 0.02 0.02 0.00 0.00 0.00 0.00 0.00 0.00 0.00 0.00
0.11 0.07 0.13 0.01 0.00 0.00 0.00 0.00 0.00 0.00 0.00 0.00 0.00 0.00 0.00 0.00 0.00 0.00 0.00 0.00 0.00 0.00 0.00 0.00 0.01 0.01 0.00 0.00 0.01 0.01 0.03 0.01 0.01 0.01 0.02 0.02 0.02 0.01 0.00 0.01 0.01 0.00 0.00 0.00 0.00 0.00 0.00 0.00 0.00
0.24 0.12 0.08 0.00 0.00 0.02 0.00 0.00 0.00 0.00 0.00 0.00 0.00 0.00 0.00 0.00 0.00 0.00 0.00 0.00 0.00 0.00 0.00 0.00 0.00 0.00 0.00 0.00 0.00 0.02 0.04 0.05 0.01 0.02 0.02 0.03 0.04 0.00 0.00 0.00 0.00 0.00 0.00 0.00 0.00 0.00 0.00 0.00 0.00
0.00 0.01 0.04 0.01 0.01 0.02 0.00 0.00 0.00 0.00 0.00 0.00 0.00 0.00 0.00 0.00 0.00 0.00 0.00 0.00 0.00 0.00 0.00 0.00 0.00 0.00 0.00 0.00 0.00 0.01 0.04 0.01 0.00 0.00 0.00 0.00 0.00 0.00 0.00 0.00 0.00 0.00 0.00 0.00 0.00 0.00 0.00 0.00 0.00
0.00 0.04 0.05 0.02 0.03 0.02 0.00 0.00 0.00 0.00 0.00 0.00 0.00 0.00 0.00 0.00 0.00 0.00 0.00 0.00 0.00 0.00 0.00 0.00 0.00 0.00 0.00 0.00 0.00 0.00 0.00 0.00 0.00 0.00 0.02 0.00 0.00 0.00 0.00 0.00 0.00 0.00 0.00 0.00 0.00 0.00 0.00 0.00 0.00
0.00 0.03 0.01 0.00 0.01 0.00 0.00 0.01 0.00 0.00 0.00 0.00 0.00 0.00 0.00 0.00 0.00 0.00 0.00 0.00 0.00 0.00 0.00 0.00 0.00 0.00 0.00 0.00 0.00 0.00 0.01 0.03 0.06 0.24 0.06 0.02 0.00 0.01 0.00 0.00 0.00 0.00 0.00 0.00 0.00 0.00 0.00 0.00 0.00
0.00 0.00 0.00 0.00 0.00 0.00 0.00 0.00 0.00 0.00 0.00 0.00 0.00 0.00 0.00 0.00 0.00 0.00 0.00 0.00 0.00 0.00 0.00 0.00 0.00 0.00 0.00 0.00 0.00 0.00 0.00 0.00 0.03 0.23 0.14 0.03 0.00 0.01 0.00 0.00 0.00 0.00 0.00 0.00 0.00 0.00 0.00 0.00 0.00
0.01 0.00 0.00 0.01 0.00 0.00 0.01 0.00 0.00 0.00 0.00 0.00 0.00 0.00 0.00 0.00 0.00 0.00 0.00 0.00 0.00 0.00 0.00 0.00 0.00 0.00 0.00 0.00 0.00 0.00 0.00 0.00 0.00 0.01 0.08 0.04 0.01 0.01 0.00 0.00 0.00 0.00 0.00 0.00 0.00 0.00 0.00 0.00 0.00
0.03 0.00 0.00 0.01 0.00 0.00 0.00 0.00 0.00 0.00 0.00 0.00 0.00 0.00 0.00 0.00 0.00 0.00 0.00 0.00 0.00 0.00 0.00 0.00 0.00 0.00 0.00 0.00 0.00 0.01 0.00 0.00 0.00 0.00 0.08 0.04 0.00 0.00 0.00 0.00 0.00 0.00 0.00 0.00 0.00 0.00 0.00 0.00 0.00
0.00 0.00 0.00 0.00 0.00 0.00 0.00 0.00 0.06 0.03 0.00 0.00 0.00 0.00 0.00 0.00 0.00 0.00 0.00 0.00 0.00 0.00 0.00 0.00 0.00 0.00 0.00 0.00 0.02 0.00 0.00 0.00 0.00 0.00 0.00 0.00 0.00 0.00 0.00 0.00 0.00 0.00 0.00 0.00 0.00 0.00 0.00 0.00 0.00
0.00 0.00 0.00 0.00 0.00 0.00 0.00 0.01 0.01 0.00 0.00 0.00 0.00 0.00 0.00 0.00 0.00 0.00 0.00 0.00 0.00 0.00 0.00 0.00 0.00 0.00 0.00 0.00 0.01 0.00 0.00 0.00 0.00 0.00 0.00 0.00 0.00 0.00 0.00 0.00 0.00 0.00 0.00 0.00 0.00 0.00 0.00 0.00 0.00
0.00 0.00 0.00 0.00 0.00 0.00 0.01 0.04 0.00 0.00 0.00 0.00 0.00 0.00 0.00 0.00 0.00 0.00 0.00 0.00 0.00 0.00 0.00 0.00 0.00 0.00 0.00 0.00 0.00 0.00 0.00 0.00 0.00 0.00 0.00 0.00 0.00 0.00 0.00 0.00 0.00 0.00 0.00 0.00 0.00 0.00 0.00 0.00 0.00
0.00 0.00 0.01 0.00 0.00 0.00 0.00 0.01 0.00 0.00 0.00 0.00 0.00 0.00 0.00 0.00 0.00 0.00 0.00 0.00 0.00 0.00 0.00 0.00 0.00 0.00 0.00 0.00 0.00 0.00 0.00 0.00 0.00 0.00 0.00 0.00 0.00 0.00 0.00 0.00 0.00 0.00 0.00 0.00 0.00 0.00 0.00 0.00 0.00
0.00 0.00 0.00 0.00 0.00 0.00 0.00 0.00 0.00 0.00 0.00 0.00 0.00 0.00 0.00 0.00 0.00 0.00 0.00 0.00 0.00 0.00 0.00 0.00 0.00 0.00 0.00 0.00 0.00 0.00 0.00 0.00 0.00 0.00 0.00 0.00 0.00 0.00 0.00 0.00 0.00 0.00 0.00 0.00 0.00 0.00 0.00 0.00 0.00
0.00 0.00 0.00 0.00 0.00 0.00 0.00 0.00 0.00 0.00 0.00 0.00 0.00 0.00 0.00 0.00 0.00 0.00 0.00 0.00 0.00 0.00 0.00 0.00 0.00 0.00 0.00 0.00 0.00 0.00 0.00 0.00 0.00 0.00 0.00 0.00 0.00 0.00 0.00 0.00 0.00 0.00 0.00 0.00 0.00 0.00 0.00 0.00 0.00
0.00 0.00 0.00 0.00 0.00 0.00 0.00 0.00 0.00 0.00 0.00 0.00 0.00 0.00 0.00 0.00 0.00 0.00 0.00 0.00 0.00 0.00 0.00 0.00 0.00 0.00 0.00 0.00 0.00 0.00 0.00 0.00 0.00 0.00 0.00 0.00 0.00 0.00 0.00 0.00 0.00 0.00 0.00 0.00 0.00 0.00 0.00 0.00 0.00
0.00 0.00 0.00 0.00 0.00 0.00 0.00 0.00 0.00 0.00 0.00 0.00 0.00 0.01 0.00 0.00 0.00 0.00 0.00 0.00 0.00 0.00 0.00 0.00 0.00 0.00 0.00 0.00 0.00 0.00 0.00 0.00 0.00 0.00 0.00 0.00 0.00 0.00 0.00 0.00 0.00 0.00 0.00 0.00 0.00 0.00 0.00 0.00 0.00
0.00 0.00 0.00 0.00 0.00 0.00 0.00 0.00 0.00 0.00 0.00 0.00 0.00 0.00 0.00 0.00 0.00 0.00 0.00 0.00 0.00 0.00 0.00 0.00 0.00 0.00 0.00 0.00 0.00 0.00 0.00 0.00 0.00 0.00 0.00 0.00 0.00 0.00 0.00 0.00 0.00 0.00 0.00 0.00 0.00 0.00 0.00 0.00 0.00
0.00 0.00 0.00 0.00 0.00 0.00 0.00 0.00 0.00 0.00 0.00 0.00 0.00 0.00 0.00 0.00 0.00 0.00 0.00 0.00 0.00 0.00 0.00 0.00 0.00 0.00 0.00 0.00 0.00 0.00 0.00 0.00 0.00 0.00 0.00 0.00 0.00 0.00 0.00 0.00 0.00 0.00 0.00 0.00 0.00 0.00 0.00 0.00 0.00
0.00 0.00 0.00 0.00 0.00 0.00 0.00 0.00 0.00 0.00 0.00 0.00 0.00 0.00 0.00 0.00 0.00 0.00 0.00 0.00 0.00 0.00 0.00 0.00 0.00 0.00 0.00 0.00 0.00 0.00 0.00 0.00 0.00 0.00 0.00 0.00 0.00 0.00 0.00 0.00 0.00 0.00 0.00 0.00 0.00 0.00 0.00 0.00 0.00
0.00 0.00 0.00 0.00 0.00 0.00 0.00 0.00 0.00 0.00 0.00 0.00 0.00 0.00 0.00 0.00 0.00 0.00 0.00 0.00 0.00 0.00 0.00 0.00 0.00 0.00 0.00 0.00 0.00 0.00 0.00 0.00 0.00 0.00 0.00 0.00 0.00 0.00 0.00 0.00 0.00 0.00 0.00 0.00 0.00 0.00 0.00 0.00 0.00
0.00 0.00 0.00 0.00 0.00 0.00 0.00 0.00 0.00 0.00 0.00 0.00 0.00 0.00 0.00 0.00 0.00 0.00 0.00 0.00 0.00 0.00 0.00 0.00 0.00 0.00 0.00 0.00 0.00 0.00 0.00 0.00 0.00 0.00 0.00 0.00 0.00 0.00 0.01 0.00 0.00 0.00 0.00 0.00 0.00 0.00 0.00 0.00 0.00
0.00 0.00 0.00 0.00 0.00 0.00 0.00 0.00 0.00 0.00 0.00 0.00 0.00 0.00 0.00 0.00 0.00 0.00 0.00 0.00 0.00 0.00 0.00 0.00 0.00 0.00 0.00 0.00 0.00 0.00 0.00 0.00 0.00 0.00 0.00 0.00 0.00 0.00 0.00 0.00 0.00 0.00 0.00 0.00 0.00 0.00 0.00 0.00 0.00
0.00 0.00 0.00 0.00 0.00 0.00 0.00 0.00 0.00 0.00 0.00 0.00 0.00 0.00 0.00 0.00 0.00 0.00 0.00 0.00 0.00 0.00 0.00 0.00 0.00 0.00 0.00 0.00 0.00 0.00 0.00 0.00 0.01 0.00 0.00 0.00 0.00 0.00 0.00 0.00 0.00 0.00 0.00 0.00 0.00 0.00 0.00 0.00 0.00
0.00 0.00 0.00 0.00 0.00 0.00 0.00 0.00 0.00 0.00 0.00 0.00 0.00 0.00 0.00 0.00 0.00 0.00 0.00 0.00 0.00 0.00 0.00 0.00 0.00 0.00 0.00 0.00 0.00 0.00 0.00 0.00 0.00 0.00 0.00 0.00 0.00 0.00 0.00 0.00 0.00 0.00 0.00 0.00 0.00 0.00 0.00 0.00 0.00
0.00 0.00 0.00 0.00 0.00 0.00 0.00 0.00 0.00 0.00 0.00 0.00 0.00 0.00 0.00 0.00 0.00 0.00 0.00 0.00 0.00 0.00 0.00 0.00 0.00 0.00 0.00 0.00 0.00 0.00 0.00 0.00 0.00 0.00 0.00 0.00 0.00 0.00 0.00 0.00 0.00 0.00 0.00 0.00 0.01 0.00 0.00 0.00 0.00
MSLP
1009.21 1008.59 1007.42 1007.24 1006.52 1003.79 1002.31 1002.07 1001.77 1002.27 1002.29 1003.03 1003.73 1004.17 1005.09 1006.21 1006.32 1008.60 1010.20 1010.64 1011.49 1012.80 1013.76 1014.44 1015.12 1015.25 1015.45 1015.64 1015.82 1016.01 1016.10 1016.16 1016.22 1016.31 1016.40 1016.42 1016.51 1016.64 1016.73 1016.86 1016.72 1016.79 1016.94 1017.09 1017.13 1017.07 1017.22 1017.27 1017.43
1007.40 1007.99 1007.75 1006.78 1005.20 1003.01 1002.02 1001.65 1001.97 1002.29 1003.00 1003.83 1004.39 1004.73 1005.59 1007.35 1008.07 1009.28 1010.33 1011.17 1011.51 1012.51 1013.62 1014.33 1015.33 1015.41 1015.64 1015.94 1016.10 1016.31 1016.36 1016.45 1016.45 1016.60 1016.69 1016.57 1016.80 1016.96 1016.96 1017.08 1017.24 1017.20 1017.31 1017.33 1017.45 1017.49 1017.60 1017.71 1017.76
1008.28 1008.00 1007.53 1005.53 1003.95 1001.95 1001.88 1002.27 1002.33 1002.96 1003.72 1004.04 1004.71 1005.57 1006.43 1008.33 1008.76 1009.46 1010.86 1011.33 1012.60 1012.82 1013.23 1014.88 1015.39 1015.63 1015.81 1016.05 1016.27 1016.44 1016.59 1016.62 1016.72 1016.80 1016.93 1017.01 1017.06 1017.16 1017.23 1017.37 1017.44 1017.56 1017.64 1017.69 1017.73 1017.87 1017.96 1017.94 1018.05
1007.90 1007.52 1006.47 1004.77 1003.29 1001.56 1001.86 1002.31 1003.03 1003.38 1003.94 1004.46 1005.11 1006.91 1008.17 1009.04 1009.54 1010.53 1011.16 1011.45 1011.98 1012.87 1013.91 1015.38 1015.67 1015.83 1016.10 1016.39 1016.55 1016.78 1016.89 1016.93 1017.00 1017.14 1017.15 1017.26 1017.28 1017.38 1017.49 1017.57 1017.72 1017.90 1017.93 1017.97 1018.12 1018.21 1018.17 1018.17 1018.32
1007.80 1006.26 1005.15 1004.08 1002.64 1002.50 1002.71 1003.22 1003.72 1003.74 1004.48 1004.88 1005.51 1007.53 1008.79 1009.41 1010.18 1010.85 1011.29 1011.54 1012.00 1013.41 1014.26 1015.36 1015.90 1016.13 1016.33 1016.59 1016.77 1016.93 1017.02 1017.23 1017.19 1017.28 1017.44 1017.64 1017.78 1017.85 1017.88 1017.91 1018.00 1018.17 1018.25 1018.33 1018.40 1018.47 1018.47 1018.56 1018.62
1007.09 1005.22 1004.78 1003.84 1003.58 1003.36 1003.51 1003.60 1003.98 1003.84 1004.44 1005.38 1006.43 1007.68 1009.12 1010.23 1010.48 1010.89 1011.17 1011.37 1011.49 1012.75 1014.14 1015.31 1016.27 1016.34 1016.54 1016.76 1017.02 1017.18 1017.37 1017.44 1017.52 1017.67 1017.82 1017.90 1018.08 1018.13 1018.20 1018.26 1018.35 1018.45 1018.56 1018.68 1018.74 1018.81 1018.86 1018.88 1018.90
1006.52 1005.17 1004.34 1003.55 1003.71 1004.09 1003.56 1003.68 1003.73 1003.91 1004.52 1005.20 1006.44 1007.73 1009.57 1010.20 1010.69 1010.92 1011.25 1011.37 1011.85 1012.51 1013.84 1014.96 1015.82 1016.52 1016.79 1016.96 1017.17 1017.39 1017.59 1017.71 1017.68 1017.90 1018.07 1018.24 1018.27 1018.42 1018.51 1018.65 1018.71 1018.80 1018.90 1019.01 1019.08 1019.08 1019.08 1019.09 1019.04
1005.80 1005.22 1004.68 1003.63 1003.85 1003.94 1004.25 1003.83 1003.92 1004.11 1004.86 1005.65 1006.33 1007.58 1009.00 1010.04 1010.64 1011.21 1011.39 1011.95 1012.33 1012.76 1013.45 1014.18 1015.36 1015.87 1016.11 1016.79 1017.41 1017.57 1017.71 1017.84 1017.99 1018.11 1018.27 1018.30 1018.41 1018.60 1018.77 1018.93 1019.03 1019.11 1019.28 1019.33 1019.29 1019.28 1019.27 1019.17 1019.11
1005.90 1005.22 1004.41 1003.38 1003.57 1003.52 1003.91 1003.72 1004.51 1005.22 1005.63 1005.96 1006.44 1007.31 1008.76 1010.16 1010.75 1011.15 1011.76 1012.33 1012.67 1013.09 1013.40 1013.93 1014.91 1015.44 1015.86 1016.55 1017.35 1017.63 1017.82 1017.90 1018.05 1018.18 1018.22 1018.14 1017.53 1018.17 1018.55 1018.85 1019.19 1019.34 1019.43 1019.48 1019.49 1019.42 1019.26 1019.01 1018.64
1005.38 1004.13 1003.23 1003.85 1003.24 1003.29 1003.54 1003.95 1004.81 1005.08 1005.88 1006.32 1006.77 1008.02 1009.44 1010.16 1010.64 1011.07 1011.60 1012.28 1012.52 1012.90 1013.47 1013.54 1014.59 1015.02 1015.09 1015.68 1016.89 1016.75 1017.37 1017.98 1017.75 1017.88 1017.68 1017.72 1017.60 1017.86 1017.91 1018.95 1019.36 1019.45 1019.49 1019.65 1019.63 1019.22 1019.24 1019.02 1017.88
1004.96 1003.56 1003.75 1003.43 1003.54 1003.96 1003.94 1004.28 1004.37 1004.83 1005.18 1006.24 1007.42 1008.38 1009.54 1010.08 1010.43 1011.01 1011.27 1011.99 1012.39 1012.98 1013.11 1013.49 1014.27 1014.72 1014.51 1015.58 1016.28 1016.14 1016.82 1016.91 1017.49 1018.05 1017.71 1017.36 1017.44 1017.86 1017.78 1018.93 1019.05 1019.22 1019.49 1019.08 1019.26 1018.87 1018.33 1017.45 1016.97
1004.71 1004.29 1003.45 1003.32 1003.73 1004.14 1004.72 1005.29 1005.02 1005.32 1006.04 1006.44 1007.73 1008.65 1009.28 1009.78 1010.08 1010.60 1011.02 1011.74 1012.37 1013.04 1013.29 1013.50 1014.23 1014.77 1015.22 1015.50 1016.15 1016.38 1015.88 1016.33 1016.63 1017.41 1017.88 1017.61 1018.13 1018.21 1017.80 1017.89 1018.19 1018.57 1018.47 1018.34 1018.15 1017.58 1018.01 1018.07 1017.96
1004.01 1003.94 1003.67 1004.31 1003.96 1004.37 1005.38 1005.60 1006.09 1006.59 1006.75 1007.47 1007.97 1008.77 1009.18 1009.46 1010.03 1010.55 1011.09 1011.71 1012.29 1013.03 1013.63 1013.90 1014.85 1015.24 1015.46 1015.74 1015.75 1016.46 1015.70 1016.12 1016.57 1016.79 1018.17 1018.03 1017.76 1018.12 1018.30 1017.72 1017.85 1017.59 1018.11 1018.19 1017.89 1018.52 1018.15 1017.97 1017.66
1003.08 1002.62 1002.82 1003.18 1004.21 1004.74 1004.98 1005.95 1006.40 1007.02 1007.31 1007.86 1008.47 1008.66 1008.92 1009.19 1009.79 1010.46 1011.02 1011.59 1012.31 1013.02 1013.65 1014.47 1015.27 1015.75 1015.90 1016.06 1016.00 1015.69 1015.98 1016.18 1016.78 1016.56 1017.12 1017.33 1017.44 1017.67 1017.78 1017.79 1017.72 1017.95 1017.98 1018.20 1018.27 1018.49 1018.22 1017.53 1017.26
1002.05 1002.19 1002.48 1002.84 1003.88 1004.21 1004.69 1005.22 1006.08 1007.13 1007.39 1008.06 1008.70 1008.47 1008.69 1009.19 1009.70 1010.45 1011.12 1011.72 1012.26 1012.95 1013.56 1014.54 1015.19 1015.67 1016.18 1016.27 1016.39 1016.09 1015.81 1015.99 1016.02 1016.86 1017.64 1017.78 1018.01 1017.96 1017.79 1017.70 1017.86 1018.01 1018.38 1018.59 1018.86 1018.69 1018.16 1017.51 1017.33
1001.61 1001.60 1001.61 1002.50 1003.21 1003.84 1004.69 1005.29 1005.80 1006.97 1007.41 1008.25 1008.18 1008.31 1008.68 1009.15 1009.75 1010.37 1011.04 1011.73 1012.31 1012.79 1013.56 1014.46 1014.53 1015.36 1015.95 1015.99 1015.94 1015.89 1015.51 1015.50 1015.78 1016.63 1017.50 1017.93 1018.03 1018.13 1017.54 1017.51 1017.73 1018.27 1018.60 1018.15 1018.04 1017.82 1017.53 1017.55 1017.65
1001.42 1000.99 1002.07 1004.02 1002.75 1003.23 1003.95 1005.00 1005.72 1006.80 1006.97 1007.99 1007.60 1008.06 1008.39 1008.94 1009.52 1010.26 1010.97 1011.59 1012.25 1012.88 1013.79 1014.32 1014.49 1015.04 1015.64 1016.16 1015.73 1015.79 1016.00 1015.52 1015.70 1016.13 1016.92 1017.80 1017.94 1018.08 1017.35 1017.13 1017.89 1018.38 1017.64 1017.68 1017.44 1017.65 1017.81 1018.20 1017.66
1000.12 1000.05 1001.84 1000.67 1001.69 1002.79 1003.32 1003.52 1004.35 1005.64 1006.10 1006.89 1007.00 1007.63 1007.93 1008.49 1009.19 1010.02 1010.63 1011.25 1012.07 1012.98 1013.83 1014.21 1014.59 1015.04 1015.66 1016.00 1015.82 1015.44 1015.72 1015.55 1015.50 1015.71 1016.65 1017.45 1017.56 1018.02 1017.62 1017.39 1018.19 1018.15 1017.43 1017.73 1017.60 1018.26 1018.19 1018.03 1017.79
999.87 999.24 999.18 1000.06 1001.37 1002.16 1002.10 1002.27 1003.27 1004.28 1005.14 1006.09 1006.58 1007.07 1007.43 1007.86 1008.67 1009.65 1010.33 1011.02 1011.89 1012.74 1013.62 1014.10 1014.52 1015.32 1015.61 1015.72 1015.55 1015.36 1015.73 1015.42 1015.88 1016.35 1016.51 1017.04 1017.44 1017.84 1017.68 1017.53 1018.17 1017.90 1017.44 1018.18 1018.55 1018.66 1018.69 1017.85 1017.92
1000.38 999.51 999.15 1000.60 1001.02 1001.54 1000.57 1001.04 1001.53 1002.55 1003.86 1005.36 1006.23 1006.23 1006.70 1007.19 1008.03 1009.12 1009.92 1010.67 1011.58 1012.46 1013.27 1014.05 1014.48 1015.24 1015.48 1015.42 1015.28 1015.28 1015.40 1015.61 1015.99 1016.86 1016.49 1016.79 1017.16 1017.67 1017.57 1017.38 1017.82 1017.60 1017.92 1018.58 1018.74 1018.72 1018.06 1017.79 1018.19
999.68 999.13 998.84 999.50 1000.48 1000.75 1000.36 1000.17 1000.17 1001.17 1002.83 1004.01 1004.96 1005.49 1005.91 1006.42 1007.15 1008.41 1009.55 1010.28 1011.03 1012.02 1012.90 1013.72 1014.36 1015.10 1015.18 1015.04 1015.22 1015.81 1015.71 1015.42 1015.56 1016.04 1016.47 1016.88 1017.15 1017.49 1017.35 1017.84 1017.58 1017.90 1018.00 1018.15 1018.70 1018.77 1018.60 1018.06 1018.03
998.64 998.81 998.91 999.93 999.70 999.07 999.31 998.50 999.07 999.93 1001.45 1002.48 1003.17 1004.49 1005.22 1005.66 1006.57 1007.67 1008.94 1009.84 1010.48 1011.41 1012.43 1013.36 1014.13 1014.79 1015.12 1015.10 1015.14 1015.46 1015.44 1014.96 1015.28 1015.54 1015.82 1016.80 1017.06 1017.20 1017.49 1017.81 1018.00 1018.29 1017.78 1017.97 1018.41 1018.64 1018.85 1018.83 1017.99
998.74 998.69 998.94 998.92 999.04 998.67 998.65 998.19 997.10 998.95 1000.00 1001.02 1002.10 1003.06 1004.12 1004.55 1005.65 1006.62 1007.89 1009.12 1009.96 1010.79 1011.83 1012.83 1013.83 1014.40 1014.71 1014.98 1015.01 1015.45 1015.19 1014.79 1015.08 1015.05 1016.09 1016.15 1016.87 1016.93 1016.86 1017.55 1017.93 1018.20 1018.17 1018.23 1018.59 1018.70 1019.10 1018.72 1018.69
999.56 999.08 998.91 999.78 998.82 997.85 997.36 996.92 995.94 996.50 997.75 999.12 1000.73 1001.71 1002.48 1003.35 1004.58 1005.73 1007.30 1008.44 1009.40 1010.27 1011.11 1012.19 1013.29 1014.07 1014.51 1014.94 1015.17 1015.13 1014.88 1014.62 1014.79 1015.10 1015.88 1016.23 1016.38 1016.92 1016.84 1017.21 1017.69 1017.88 1017.92 1018.41 1018.61 1018.85 1019.05 1019.10 1018.93
999.40 998.97 998.36 998.36 997.87 997.16 996.69 996.26 995.61 996.56 997.34 997.58 998.95 1000.41 1001.44 1002.24 1003.41 1004.88 1006.17 1007.32 1008.50 1009.21 1010.26 1011.52 1012.59 1013.57 1014.20 1014.55 1015.02 1015.03 1014.97 1015.06 1014.93 1015.42 1015.63 1015.39 1015.37 1015.62 1016.67 1017.19 1017.69 1017.72 1018.04 1018.17 1018.39 1018.78 1018.87 1019.03 1019.01
998.56 998.33 997.51 997.08 996.66 996.32 996.17 995.56 995.37 996.01 996.56 997.01 997.78 999.34 1000.61 1001.38 1002.19 1003.55 1004.94 1006.21 1007.47 1008.40 1009.42 1010.48 1011.60 1012.82 1013.64 1014.02 1014.57 1014.98 1015.13 1015.00 1014.99 1015.48 1015.13 1015.30 1014.93 1015.42 1016.35 1016.96 1017.11 1017.51 1017.51 1018.04 1018.27 1018.53 1018.70 1018.71 1018.93
998.13 997.89 998.02 997.11 996.38 995.50 994.58 994.89 995.52 996.15 996.60 996.70 997.38 998.11 999.37 1000.42 1001.16 1002.34 1003.70 1005.25 1006.54 1007.61 1008.51 1009.32 1010.43 1011.83 1012.70 1013.33 1014.08 1014.54 1014.94 1015.01 1014.83 1014.93 1015.40 1015.45 1015.39 1015.33 1016.07 1016.61 1017.03 1017.11 1017.19 1017.63 1017.89 1018.21 1018.33 1018.48 1018.85
998.06 998.18 998.16 997.31 996.24 995.34 994.49 994.40 994.39 994.90 996.04 996.59 997.10 997.70 998.49 999.58 1000.59 1001.48 1002.54 1004.00 1005.55 1006.76 1007.74 1008.73 1009.63 1010.85 1011.72 1012.43 1013.32 1014.01 1014.48 1014.90 1015.05 1014.91 1015.01 1015.07 1015.24 1015.71 1015.96 1016.52 1016.80 1017.00 1016.98 1017.17 1017.70 1017.69 1017.87 1018.25 1018.27
997.91 997.38 997.34 997.34 996.90 995.66 994.77 993.84 993.99 994.94 995.50 996.41 996.89 997.36 997.90 998.74 999.67 1000.59 1001.60 1002.74 1004.39 1005.60 1006.66 1007.72 1008.68 1009.79 1010.90 1011.64 1012.38 1013.22 1013.86 1014.37 1014.88 1014.78 1014.99 1015.26 1015.25 1015.68 1016.12 1016.34 1016.65 1016.73 1016.90 1017.15 1017.38 1017.62 1017.42 1017.75 1017.87
997.63 997.62 997.59 996.79 996.78 996.10 995.10 993.92 993.76 994.33 995.66 996.84 997.25 997.87 997.81 998.06 998.86 1000.01 1000.94 1002.01 1003.35 1004.58 1005.76 1006.84 1007.86 1008.87 1010.10 1011.04 1011.66 1012.51 1013.25 1013.63 1014.03 1014.40 1014.60 1015.04 1015.22 1015.48 1015.92 1016.11 1016.35 1016.45 1016.52 1016.72 1016.91 1016.99 1016.80 1017.02 1017.11
Thickness
5815 5820 5832 5817 5790 5811 5809 5810 5830 5813 5815 5826 5824 5810 5797 5792 5782 5750 5783 5785 5779 5767 5759 5753 5748 5747 5745 5744 5743 5743 5744 5745 5746 5745 5746 5746 5747 5747 5748 5748 5750 5753 5752 5753 5755 5757 5758 5760 5761
5831 5826 5822 5810 5790 5798 5807 5832 5816 5822 5825 5826 5819 5811 5797 5774 5790 5782 5778 5782 5780 5771 5762 5756 5748 5747 5746 5745 5743 5742 5744 5745 5746 5745 5745 5748 5747 5747 5748 5749 5750 5753 5754 5756 5757 5758 5760 5760 5761
5827 5828 5806 5806 5812 5813 5807 5825 5825 5828 5828 5821 5811 5813 5799 5775 5791 5788 5787 5785 5773 5771 5767 5754 5750 5747 5746 5746 5744 5744 5744 5745 5745 5746 5746 5747 5748 5749 5750 5751 5752 5753 5754 5757 5758 5760 5761 5761 5761
5823 5820 5824 5802 5803 5840 5831 5832 5830 5825 5827 5827 5818 5786 5794 5798 5789 5790 5790 5787 5782 5773 5763 5752 5751 5749 5747 5745 5744 5743 5744 5745 5747 5747 5748 5748 5750 5751 5752 5752 5753 5753 5755 5757 5757 5760 5761 5762 5762
5825 5825 5806 5802 5826 5835 5838 5835 5831 5821 5817 5818 5817 5785 5779 5794 5797 5793 5790 5789 5782 5771 5763 5754 5752 5750 5749 5747 5745 5745 5745 5745 5747 5748 5748 5747 5748 5750 5752 5753 5754 5755 5755 5757 5758 5759 5761 5762 5763
5808 5832 5793 5803 5814 5828 5832 5838 5829 5827 5826 5818 5804 5793 5784 5794 5793 5793 5795 5792 5792 5780 5768 5758 5751 5751 5749 5748 5746 5746 5745 5746 5747 5747 5748 5748 5748 5751 5753 5754 5755 5755 5756 5757 5758 5760 5761 5763 5765
5807 5813 5805 5822 5818 5811 5829 5845 5830 5830 5824 5817 5819 5788 5787 5789 5796 5799 5797 5796 5792 5785 5773 5763 5756 5752 5749 5748 5747 5746 5745 5746 5748 5748 5749 5749 5750 5751 5753 5754 5754 5755 5756 5758 5759 5761 5763 5765 5768
5829 5821 5800 5824 5809 5812 5831 5839 5844 5835 5821 5836 5829 5790 5783 5794 5801 5800 5798 5793 5789 5787 5779 5772 5762 5759 5756 5751 5747 5747 5747 5748 5749 5749 5750 5753 5753 5754 5754 5755 5755 5756 5757 5758 5761 5764 5766 5769 5771
5840 5803 5799 5822 5818 5825 5842 5834 5842 5841 5825 5827 5827 5817 5813 5806 5803 5799 5793 5788 5787 5785 5784 5778 5769 5764 5762 5756 5750 5749 5749 5750 5751 5752 5755 5758 5763 5760 5759 5758 5758 5759 5761 5763 5764 5767 5771 5775 5779
5825 5811 5827 5835 5843 5837 5844 5838 5832 5828 5819 5817 5820 5821 5815 5809 5803 5796 5792 5785 5787 5787 5785 5787 5776 5771 5770 5765 5756 5758 5755 5752 5755 5758 5763 5765 5768 5766 5767 5762 5762 5765 5766 5766 5768 5774 5775 5778 5787
5829 5824 5838 5843 5848 5845 5840 5837 5847 5831 5821 5822 5808 5811 5810 5809 5805 5800 5800 5794 5792 5792 5793 5792 5784 5778 5779 5771 5765 5767 5763 5764 5761 5759 5765 5771 5772 5770 5773 5767 5769 5770 5771 5775 5776 5780 5785 5793 5797
5817 5833 5845 5846 5848 5841 5829 5834 5831 5832 5825 5836 5825 5819 5815 5810 5809 5807 5805 5801 5798 5794 5795 5796 5789 5784 5779 5775 5775 5772 5776 5774 5774 5769 5768 5772 5772 5774 5779 5780 5780 5779 5782 5785 5788 5794 5791 5791 5792
5822 5831 5839 5838 5845 5841 5834 5825 5820 5818 5831 5832 5828 5819 5814 5816 5813 5813 5812 5810 5806 5798 5797 5798 5790 5786 5783 5781 5781 5777 5781 5780 5778 5779 5772 5774 5779 5780 5781 5785 5786 5791 5789 5789 5793 5788 5792 5794 5796
5841 5847 5847 5849 5837 5836 5829 5821 5822 5820 5829 5823 5819 5817 5818 5819 5818 5815 5812 5810 5807 5804 5800 5798 5792 5787 5785 5786 5785 5787 5786 5784 5781 5784 5783 5784 5785 5786 5787 5789 5791 5791 5792 5791 5792 5791 5794 5800 5802
5852 5836 5845 5846 5839 5833 5839 5817 5812 5822 5825 5814 5811 5819 5820 5819 5822 5815 5814 5810 5811 5809 5806 5799 5796 5792 5789 5789 5788 5791 5793 5793 5792 5787 5783 5784 5785 5788 5791 5792 5793 5793 5791 5790 5790 5792 5797 5803 5805
5838 5842 5823 5840 5842 5841 5830 5786 5822 5826 5820 5806 5814 5818 5818 5818 5819 5821 5820 5816 5815 5813 5808 5804 5806 5799 5795 5795 5795 5798 5800 5801 5800 5793 5788 5787 5788 5789 5795 5797 5796 5793 5791 5796 5799 5803 5805 5806 5805
5830 5814 5813 5775 5842 5837 5828 5796 5822 5825 5822 5807 5818 5817 5818 5818 5820 5821 5821 5820 5816 5814 5809 5806 5808 5804 5801 5797 5800 5801 5800 5806 5805 5802 5797 5791 5792 5792 5799 5802 5798 5795 5802 5803 5806 5805 5805 5800 5807
5818 5832 5807 5831 5837 5833 5823 5820 5829 5828 5825 5816 5821 5819 5820 5818 5817 5822 5823 5824 5820 5815 5810 5809 5808 5806 5802 5802 5803 5807 5807 5809 5810 5809 5803 5797 5797 5796 5800 5803 5798 5799 5806 5805 5807 5801 5805 5807 5808
5839 5846 5847 5842 5838 5827 5826 5830 5826 5832 5827 5818 5819 5819 5821 5822 5825 5825 5825 5825 5821 5816 5811 5809 5807 5804 5803 5803 5805 5807 5804 5811 5809 5807 5806 5803 5801 5799 5801 5803 5799 5802 5807 5803 5801 5800 5800 5809 5811
5821 5831 5840 5830 5836 5829 5842 5831 5842 5840 5831 5822 5817 5823 5825 5827 5826 5823 5824 5824 5821 5815 5814 5810 5809 5806 5806 5809 5812 5814 5813 5812 5810 5805 5807 5806 5804 5801 5803 5805 5803 5806 5804 5800 5801 5802 5806 5811 5811
5824 5829 5840 5833 5827 5837 5834 5827 5840 5846 5840 5833 5831 5832 5833 5831 5828 5825 5821 5822 5823 5818 5815 5813 5811 5809 5810 5815 5814 5809 5811 5815 5813 5811 5808 5805 5804 5802 5804 5801 5804 5803 5804 5804 5803 5805 5805 5806 5811
5816 5848 5844 5820 5821 5813 5844 5809 5835 5842 5833 5835 5838 5831 5830 5834 5835 5831 5824 5822 5823 5822 5820 5816 5814 5811 5811 5814 5813 5808 5807 5809 5813 5814 5814 5806 5804 5804 5803 5801 5800 5800 5806 5807 5806 5807 5806 5805 5808
5818 5847 5839 5839 5826 5831 5829 5821 5850 5846 5828 5832 5838 5836 5834 5841 5838 5834 5830 5825 5826 5826 5821 5819 5815 5813 5813 5814 5814 5809 5809 5816 5816 5818 5810 5811 5805 5806 5807 5802 5801 5800 5802 5806 5805 5807 5805 5810 5808
5828 5826 5829 5818 5826 5805 5836 5841 5855 5853 5847 5844 5844 5844 5846 5846 5842 5840 5834 5829 5825 5827 5825 5819 5815 5812 5812 5811 5811 5813 5813 5815 5815 5814 5807 5808 5810 5807 5808 5806 5803 5804 5805 5804 5805 5805 5807 5808 5810
5809 5806 5786 5780 5789 5792 5848 5839 5856 5859 5858 5863 5852 5848 5851 5853 5847 5840 5833 5831 5828 5828 5825 5821 5815 5809 5811 5811 5809 5812 5815 5813 5813 5810 5809 5813 5815 5816 5810 5807 5805 5806 5805 5806 5806 5805 5807 5808 5808
5798 5806 5794 5766 5787 5809 5845 5815 5841 5871 5873 5873 5869 5860 5855 5854 5854 5847 5842 5838 5833 5832 5829 5825 5819 5811 5810 5812 5809 5810 5813 5814 5814 5811 5816 5816 5820 5818 5812 5808 5808 5807 5808 5806 5806 5807 5808 5810 5808
5796 5784 5822 5814 5831 5822 5846 5850 5862 5860 5860 5866 5864 5862 5857 5856 5856 5852 5848 5842 5837 5834 5832 5830 5825 5817 5813 5812 5810 5810 5810 5812 5814 5815 5813 5815 5818 5819 5814 5809 5808 5807 5808 5807 5807 5808 5808 5809 5806
5794 5817 5782 5801 5776 5783 5828 5828 5833 5849 5848 5855 5856 5859 5861 5861 5858 5857 5853 5847 5841 5838 5836 5832 5828 5819 5815 5815 5812 5809 5808 5809 5810 5814 5813 5815 5817 5815 5814 5810 5809 5809 5809 5808 5806 5809 5810 5807 5808
5777 5784 5798 5808 5805 5791 5796 5824 5871 5852 5857 5850 5857 5863 5866 5865 5863 5862 5859 5856 5847 5843 5839 5835 5830 5824 5818 5818 5815 5812 5809 5809 5808 5811 5812 5812 5814 5812 5809 5810 5809 5810 5810 5808 5807 5806 5810 5806 5806
5791 5783 5791 5780 5774 5805 5815 5825 5883 5873 5860 5850 5856 5853 5868 5873 5871 5866 5862 5857 5849 5843 5839 5835 5832 5827 5821 5818 5817 5811 5809 5810 5809 5809 5810 5810 5810 5810 5808 5808 5809 5810 5811 5810 5808 5808 5812 5809 5808